パンスターズ彗星

380P/PanSTARRS (2019)

English version
Home page
Updated on September 17, 2019

---------------------------------------------------------------------

・ プロフィール

符号 380P/2019 G1
発見日 2019年4月3日
発見光度 19.9等
発見者 Pan-STARRS 1 telescope (Haleakala)

・ 写真集

・ 軌道要素

Epoch 2019 June 6.0 TT = JDT 2458640.5
T 2019 June 6.90803 TT                                  MPCW
q   3.0496795            (2000.0)            P               Q
n   0.10217910     Peri.   90.06620     -0.72181001     +0.68414726
a   4.5313541      Node   133.10306     -0.67820382     -0.66909411
e   0.3269827      Incl.    8.23355     -0.13794884     -0.29026815
P   9.65
From 170 observations 2018 Jan. 16-2019 May 12, mean residual 0".5.

・ 光度変化

        m1 = 7.0 + 5 logΔ + 20.0 log r

---------------------------------------------------------------------

軌道要素はM.P.E.C. 2019-J142に掲載されたものです。
光度グラフはComet for Windowsで作成したものです。

---------------------------------------------------------------------

Copyright(C) Seiichi Yoshida (comet@aerith.net). All rights reserved.